Powrót do katalogu

STARLINK-2440

AktywnyŁącznośćVLEO
NORAD 48105·PAYLOAD·🇺🇸 United States

Wystrzelony Apr 7, 2021 z Cape Canaveral Space Force Station

Loading…

Następne Przeloty (najbliższe 24 godziny)

TLE

ŚwieżeSource: CelesTrak SupGP

Epoka: Sep 14, 2026, 22:06 UTC

1 48105C 21027P   26257.92131944  .00027782  00000+0  89409-3 0  2570
2 48105  53.1570 300.6037 0001176  79.7383  75.3226 15.31663620    11

Śledź STARLINK-2440 w czasie rzeczywistym z AllMySat

Download on the App Store